THORAD DELTA 1 DEB, 9984

Orbit data source: Space-Track

THORAD DELTA 1 DEB, 9984 is space debris in SSO originally from a launch on Fri, 15 Nov 1974 UTC launched from the Air Force Western Test Range (AFWTR). Debris objects in space refer to the collection of defunct objects orbiting the Earth. Examples of debris include non-operational satellites, rocket bodies, and fragments generated from explosions, collisions, or faulty payload assembly.

Loading next visibility...
Identifier
9984, 1974-089EB
Orbit
SSO
Country
Flag of USUS
Related business
Manufacturer
Unknown
Mission
Spacecraft
Bus & Motor
Unknown
Mass
Unknown
Launch date (UTC)
1974-11-15 (52 years ago)
Launch vehicle
Unknown
Launch site
Air Force Western Test Range (AFWTR)
Object type
Payload
Rocket body
Debris
Shape & HBR
Unknown shape, 0.1 m
Radar Cross Section
Medium (>0.1 m² and <1 m²)

Expand to show TLE details & history
Last TLE update: 19 hours ago

TLE from 19 hours ago
0 THORAD DELTA 1 DEB
1 09984U 74089EB  26165.78790870 -.00000033  00000-0  98135-4 0  9991
2 09984 102.3354 163.1737 0095196 156.7196  24.3131 12.40458667337003
Epoch: 2026-06-14T18:54Z
TLE epoch observation values (Epoch: 2026-06-14T18:54:35.311Z)
Latitude
-1.56549°
Longitude
156.1022°
Altitude
1,439.139 km
Speed
7.173 km/s
True Right ascension
22h 51m 19s
True Declination
-1° 33' 25"
Sunlit
Object was in daylight at epoch
Visualization orbit readout
Latitude
Unknown
Longitude
Unknown
Altitude
Unknown
Speed
Unknown
Apparent Right ascension
Unknown
Apparent Declination
Unknown
Sunlit
N/A
Visualization observer readout
Local Sidereal Time
00:02:23
Azimuth
Unknown
Elevation
Unknown
Doppler factor
Unknown
Orbital elements
Apogee altitude
1,577.272 km
Perigee altitude
1,427.235 km
Semi-major axis
7,880.39 km
Eccentricity
0.00952
Inclination
102.3354°
RAAN
163.1737°
Arg. of periapsis
156.7196°
True anomaly
24.76715°
Mean anomaly
24.3131°
Eccentric anomaly
24.53963°
Mean motion
3.10257 °/min
Orbital period
116.03 mins
BSTAR
0.000098135
Loading maneuver chart data...
Computing Atmospheric mass density...

Documentation

Showing up to 5 results
|